Location: Unspecified
(44.0704°N, 88.6889°W)
Time: 13:56:48
(UTC+01:00)

Okean 3 - Pass Details

Date: 06 October 2020
Orbit: 575 x 602 km, 82.5° (Epoch: 26 October)

Event Time Altitude Azimuth Distance (km) Brightness Sun altitude
Exits shadow 12:41:13 20° 231° (SW) 1,387 4.9 -14.8°
Maximum altitude 12:43:32 35° 284° (WNW) 968 4.1 -14.4°
Drops below altitude 10° 12:47:28 10° 351° (N) 1,929 6.1 -13.7°
Sets 12:49:49 0° 1° (N) 2,830 7.0 -13.2°
